sat.trackr.live / text

‹ back to catalog

STARLINK-35995

NORAD 66817 · 2025-278AC

PAYLOAD ACTIVE UNKNOWN

§ Identity

Operator
Country
US
Launch date
2025-12-01
Launch site
AFETR
Launch vehicle
Mass (kg)
RCS (m²)

Purposes: comms

External: N2YO · Heavens-Above · Gunter

§ Orbital elements

Epoch: 2026-05-25T02:01:53.728032Z

Period
94.27 min
Inclination
43.0021°
Eccentricity
0.0001447
Mean motion
15.27544422 rev/d
Perigee alt
482.2 km
Apogee alt
484.1 km
Semi-major
6,861.3 km
B*
9.1459e-4
RAAN
42.8480°
Arg perigee
274.3233°
Mean anomaly
85.7453°
Rev number
2,689

§ Raw data

STARLINK-359951 66817U 25278AC  26145.08464963  .00024963  00000+0  91459-3 0  99942 66817  43.0021  42.8480 0001447 274.3233  85.7453 15.27544422 26899

JSON: /api/v1/satellites/66817 · /tle

For live sub-satellite position, see the globe view (requires WebGL).

§ Visibility from observer

Set your observer location to see the next 7 days of passes ≥ 10°. The values pass through the URL so the page stays shareable.

No JS? Fill the form by hand. The geolocation button needs JavaScript.